Regional Weather Roundup
Issued by NWS Midland/Odessa, TX

Skip options and go directly to product.
Home | Oldest Version | Previous Version | Current Version | All | Text Only | Save Text | Print | Product List | Glossary On

Skip product version selection by date and time.   
606
ASUS44 KMAF 282010
RWRMAF
MIDLAND AREA WEATHER ROUNDUP
NATIONAL WEATHER SERVICE MIDLAND TX
200 PM CST WED JAN 28 2015

...IN SOUTHWEST TEXAS AND SOUTHEAST NEW MEXICO...

CITY           SKY/WX    TMP DP  RH WIND       PRES   REMARKS
ALPINE         SUNNY     74  45  35 S5        30.22F
ANDREWS        FAIR      74  39  27 W13G20    30.09F
ARTESIA        SUNNY     70  37  30 E7        30.11F
BIG SPRING     SUNNY     79  45  30 SW9       30.09F
CARLSBAD       SUNNY     76  38  25 W18       30.08F
DRYDEN           N/A     76  42  29 S6        30.08F
FORT STOCKTON  SUNNY     78  46  32 SW6       30.09F
GUAD PASS      SUNNY     67  39  35 SW20G30   30.20F
HOBBS          SUNNY     72  37  28 W13       30.11F
MARFA          MOSUNNY   72  46  40 SW7       30.21F
MIDLAND AIRPK  SUNNY     76  44  31 W6        30.08F
MIDLAND INTL   SUNNY     77  43  29 W12       30.08F
ODESSA         SUNNY     76  42  29 W10       30.09F
PECOS          SUNNY     77  46  33 CALM      30.07F
PRESIDIO       FAIR      71  47  41 SE3       30.13F
SEMINOLE       SUNNY     74  38  27 W12       30.10F
SNYDER         PTSUNNY  N/A N/A N/A SW13G18   30.05F
WINK           SUNNY     77  41  27 W8        30.07F
$$
...OTHER STATIONS IN TEXAS...

CITY           SKY/WX    TMP DP  RH WIND       PRES   REMARKS
ABILENE        PTSUNNY   78  42  27 SW15      30.04F
AMARILLO       SUNNY     67  34  29 NW14      30.02F
AUSTIN         MOSUNNY   78  41  26 S15G25    30.10F
BROWNSVILLE    SUNNY     76  60  57 S15G24    30.15F
CORPUS CHRISTI PTSUNNY   80  47  31 S15       30.13F
DALLAS FTW     PTSUNNY   79  39  23 S16       30.00F
DEL RIO        SUNNY     80  40  23 SE15      30.06F
EL PASO        MOSUNNY   70  41  34 NE5       30.16F
HOUSTON INT    MOSUNNY   78  41  26 SE9       30.14F
LUBBOCK        MOSUNNY   75  34  22 W26G33    30.02F
SAN ANGELO     SUNNY     80  40  23 SW16      30.06F
SAN ANTONIO    PTSUNNY   79  39  23 S12       30.12F
WACO           SUNNY     79  44  28 S15       30.06F
WICHITA FALLS  NOT AVBL
$$
...OTHER LOCATIONS IN NEW MEXICO...

CITY           SKY/WX    TMP DP  RH WIND       PRES   REMARKS
ALAMAGORDO     MOSUNNY   68  36  30 N7        30.18F
ALBUQUERQUE    MOSUNNY   61  29  29 W15       30.21F
CANNON AFB     SUNNY     67  34  28 W24G30    30.07F
CLOVIS         SUNNY     68  36  30 W22G28    30.07F
HOLLOMAN AFB   MOSUNNY   68  37  31 NW6       30.16F
ROSWELL        SUNNY     73  36  25 NW8       30.10F
RUIDOSO        SUNNY     57  28  33 NW12G18   30.24F
SANTA FE       SUNNY     55  27  34 NW10G17   30.20F
TRUTH OR CONSE SUNNY     64  36  35 VRB7      30.18F
TUCUMCARI      SUNNY     69   3   7 SW3       30.04F
$$

USA.gov is the U.S. government's official web portal to all federal, state and local government web resources and services.